Regional Weather Roundup
Issued by NWS

Home | Current Version | Previous Version | Text Only | Print | Product List | Glossary Off
Versions: 1 2 3 4 5 6 7 8 9 10 11 12 13 14 15 16 17 18 19 20 21 22 23 24 25 26 27 28 29 30 31 32 33 34 35 36 37 38 39 40 41 42 43 44 45 46 47 48 49 50

000
ASUS45 KCYS 061610
RWRWY

WYOMING REGIONAL WEATHER ROUNDUP
NATIONAL WEATHER SERVICE CHEYENNE WY
1000 AM MDT WED MAY 06 2015

NOTE:  "FAIR" INDICATES FEW OR NO CLOUDS BELOW 12,000 FEET
WITH NO SIGNIFICANT WEATHER AND/OR OBSTRUCTIONS TO VISIBILITY.

WYZ001-061700-
YELLOWSTONE NATIONAL PARK

CITY           SKY/WX    TMP DP  RH WIND       PRES   REMARKS
LK YELLOWSTONE   N/A     43  36  76 SE6       29.89F
W YELLOWSTONE  NOT AVBL

$$
WYZ002>013-054>058-071-098>099-061700-
NORTHERN WYOMING

CITY           SKY/WX    TMP DP  RH WIND       PRES   REMARKS
JACKSON        PTSUNNY   48  41  76 CALM      29.84F
CODY           CLOUDY    45  37  76 NW17      29.85R
GREYBULL       LGT RAIN  55  48  77 NW21G30   29.74R
WORLAND        CLOUDY    54  48  80 N20       29.74F
SHERIDAN       LGT RAIN  50  48  93 NW12      29.80R
BUFFALO        CLOUDY    50  44  80 N31G40    29.78R
GILLETTE       CLOUDY    51  47  86 N12       29.71S
HULETT         LGT RAIN  54  52  94 N3        29.73S
NEWCASTLE      RAIN      52  52 100 S6        29.72F

$$
WYZ014>020-022>026-101>103-061700-
CENTRAL WYOMING

CITY           SKY/WX    TMP DP  RH WIND       PRES   REMARKS
BIG PINEY      CLOUDY    53  27  36 N13       29.83S
PINEDALE       FAIR      52  34  50 NW18      29.82S
DUBOIS         FAIR      52  30  43 MISG      29.81S
LANDER         LGT RAIN  49  46  90 NE13      29.79R FOG
RIVERTON       LGT RAIN  49  45  86 N15       29.80R FOG
CASPER         CLOUDY    52  44  74 NE13      29.75S
DOUGLAS        LGT RAIN  51  49  92 NW7       29.73S FOG

$$
WYZ021-027>030-104>119-061700-
SOUTHERN WYOMING

CITY           SKY/WX    TMP DP  RH WIND       PRES   REMARKS
EVANSTON       CLOUDY    47  43  86 SW8       29.87F
KEMMERER       FAIR      50  32  50 W12       29.87R
FORT BRIDGER   PTSUNNY   52  39  62 W12       29.88F
ROCK SPRINGS   PTSUNNY   52  39  61 W12       29.82S
DIXON          LGT RAIN  51  45  81 W6        29.83S
RAWLINS        CLOUDY    49  42  77 N6        29.80S
SARATOGA       CLOUDY    48  45  87 N3        29.81S
LARAMIE        CLOUDY    48  41  76 N9        29.77F
CHEYENNE       CLOUDY    50  46  86 N10       29.72S
TORRINGTON     LGT RAIN  54  52  93 NE6       29.67S FOG
PINE BLUFFS    DRIZZLE   52  50  93 N7        29.69S

$$


USA.gov is the U.S. government's official web portal to all federal, state and local government web resources and services.